Location: *
(55.5817°S, 142.4781°W)
Time: 07:07:32
(UTC+00:00)

YAOGAN 1 - Pass Details

Date: 29 April 2025
Orbit: 606 x 609 km, 97.8° (Epoch: 23 May)

Event Time Altitude Azimuth Distance (km) Brightness Sun altitude
Rises 15:38:47 0° 20° (NNE) 2,876 6.4 -10.5°
Reaches altitude 10° 15:40:57 10° 21° (NNE) 1,979 5.6 -10.2°
Maximum altitude 15:45:15 80° 106° (ESE) 637 2.7 -9.6°
Drops below altitude 10° 15:49:38 10° 193° (SSW) 2,007 4.9 -9.0°
Sets 15:51:51 0° 194° (SSW) 2,920 5.7 -8.7°
